JR4ZXW Weather Reports


Display with metric or nautical units.
time (UTC)temp
F
wind
direction
speed
MPH
gust
MPH
rain 1hr
in
rain 24hr
in
rain mn
in
humidity
%
barometer
mb
20260509091533 71 0 0.0 0.0 0.00 0.00 0.00 41 1015.7
20260509091433 71 0 0.0 0.0 0.00 0.00 0.00 41 1015.7
20260509091333 71 0 0.0 0.0 0.00 0.00 0.00 41 1015.7
20260509091233 71 0 0.0 0.0 0.00 0.00 0.00 41 1015.7
20260509090318 71 0 0.0 0.0 0.00 0.00 0.00 40 1015.7
20260509085918 71 0 0.0 0.0 0.00 0.00 0.00 40 1015.7
20260509085518 71 0 0.0 0.0 0.00 0.00 0.00 40 1015.7
20260509085118 71 0 0.0 0.0 0.00 0.00 0.00 40 1015.7
20260509084718 71 0 0.0 0.0 0.00 0.00 0.00 40 1015.6
20260509084518 71 0 0.0 0.0 0.00 0.00 0.00 40 1015.6
20260509084318 71 0 0.0 0.0 0.00 0.00 0.00 40 1015.6
20260509084118 71 0 0.0 0.0 0.00 0.00 0.00 40 1015.6
20260509083918 71 0 0.0 0.0 0.00 0.00 0.00 40 1015.5
20260509083818 71 0 0.0 0.0 0.00 0.00 0.00 40 1015.5
20260509083719 71 0 0.0 0.0 0.00 0.00 0.00 40 1015.5
20260509080408 71 0 0.0 0.0 0.00 0.00 0.00 40 1015.4
20260509080208 71 0 0.0 0.0 0.00 0.00 0.00 40 1015.4
20260509080008 71 0 0.0 0.0 0.00 0.00 0.00 40 1015.4
20260509075808 71 0 0.0 0.0 0.00 0.00 0.00 40 1015.2
20260509075608 71 0 0.0 0.0 0.00 0.00 0.00 40 1015.2
20260509075508 71 0 0.0 0.0 0.00 0.00 0.00 40 1015.2
20260509075408 71 0 0.0 0.0 0.00 0.00 0.00 40 1015.2
20260509075308 71 0 0.0 0.0 0.00 0.00 0.00 40 1015.2
20260509075040 71 0 0.0 0.0 0.00 0.00 0.00 40 1015.2
20260509074240 71 0 0.0 0.0 0.00 0.00 0.00 40 1015.3
20260509073440 71 0 0.0 0.0 0.00 0.00 0.00 40 1015.2
20260509073040 71 0 0.0 0.0 0.00 0.00 0.00 40 1015.2
20260509072640 71 0 0.0 0.0 0.00 0.00 0.00 40 1015.2
20260509072240 71 0 0.0 0.0 0.00 0.00 0.00 40 1015.2
20260509071840 71 0 0.0 0.0 0.00 0.00 0.00 40 1015.2
20260509071640 71 0 0.0 0.0 0.00 0.00 0.00 40 1015.2
20260509071440 71 0 0.0 0.0 0.00 0.00 0.00 40 1015.2
20260509071240 71 0 0.0 0.0 0.00 0.00 0.00 40 1015.2
20260509071040 71 0 0.0 0.0 0.00 0.00 0.00 40 1015.2
20260509070940 71 0 0.0 0.0 0.00 0.00 0.00 39 1015.2
20260509070840 71 0 0.0 0.0 0.00 0.00 0.00 39 1015.2
20260509070740 71 0 0.0 0.0 0.00 0.00 0.00 39 1015.2
20260509070640 71 0 0.0 0.0 0.00 0.00 0.00 39 1015.2
20260509070459 71 0 0.0 0.0 0.00 0.00 0.00 40 1015.2
20260509070359 71 0 0.0 0.0 0.00 0.00 0.00 40 1015.2
20260509070259 71 0 0.0 0.0 0.00 0.00 0.00 40 1015.2
20260509070159 71 0 0.0 0.0 0.00 0.00 0.00 40 1015.2
20260509070059 71 0 0.0 0.0 0.00 0.00 0.00 40 1015.2
20260509064852 71 0 0.0 0.0 0.00 0.00 0.00 39 1015.4
20260509063252 71 0 0.0 0.0 0.00 0.00 0.00 38 1015.5
20260509062452 71 0 0.0 0.0 0.00 0.00 0.00 37 1015.5
20260509061652 71 0 0.0 0.0 0.00 0.00 0.00 36 1015.5
20260509060852 71 0 0.0 0.0 0.00 0.00 0.00 34 1015.5
20260509060052 71 0 0.0 0.0 0.00 0.00 0.00 35 1015.7
20260509055652 71 0 0.0 0.0 0.00 0.00 0.00 35 1015.7
20260509055252 71 0 0.0 0.0 0.00 0.00 0.00 35 1015.7
20260509054852 71 0 0.0 0.0 0.00 0.00 0.00 35 1015.5
20260509054452 71 0 0.0 0.0 0.00 0.00 0.00 35 1015.5
20260509054252 71 0 0.0 0.0 0.00 0.00 0.00 35 1015.5
20260509054052 71 0 0.0 0.0 0.00 0.00 0.00 35 1015.5
20260509053852 71 0 0.0 0.0 0.00 0.00 0.00 35 1015.5
20260509053652 71 0 0.0 0.0 0.00 0.00 0.00 35 1015.5
20260509053552 71 0 0.0 0.0 0.00 0.00 0.00 35 1015.5
20260509053452 71 0 0.0 0.0 0.00 0.00 0.00 35 1015.5
20260509053352 71 0 0.0 0.0 0.00 0.00 0.00 35 1015.5
20260509051819 69 0 0.0 0.0 0.00 0.00 0.00 34 1015.5
20260509050219 69 0 0.0 0.0 0.00 0.00 0.00 35 1015.5
20260509044619 69 0 0.0 0.0 0.00 0.00 0.00 36 1015.9
20260509043819 69 0 0.0 0.0 0.00 0.00 0.00 36 1016.0
20260509043019 69 0 0.0 0.0 0.00 0.00 0.00 35 1016.2
20260509042219 69 0 0.0 0.0 0.00 0.00 0.00 35 1016.2
20260509041419 69 0 0.0 0.0 0.00 0.00 0.00 34 1016.2
20260509041019 69 0 0.0 0.0 0.00 0.00 0.00 35 1016.2
20260509040619 69 0 0.0 0.0 0.00 0.00 0.00 35 1016.2
20260509040219 69 0 0.0 0.0 0.00 0.00 0.00 35 1016.2
20260509035819 69 0 0.0 0.0 0.00 0.00 0.00 36 1016.4
20260509035619 69 0 0.0 0.0 0.00 0.00 0.00 36 1016.4
20260509035419 69 0 0.0 0.0 0.00 0.00 0.00 36 1016.4
20260509035219 69 0 0.0 0.0 0.00 0.00 0.00 36 1016.4
20260509035019 68 0 0.0 0.0 0.00 0.00 0.00 36 1016.4
20260509034919 68 0 0.0 0.0 0.00 0.00 0.00 36 1016.4
20260509034819 68 0 0.0 0.0 0.00 0.00 0.00 36 1016.4
20260509034719 68 0 0.0 0.0 0.00 0.00 0.00 36 1016.4
20260509024117 66 0 0.0 0.0 0.00 0.00 0.00 38 1017.0
20260509021117 66 0 0.0 0.0 0.00 0.00 0.00 47 1017.5
20260509014117 64 0 0.0 0.0 0.00 0.00 0.00 51 1017.8
20260509011117 64 0 0.0 0.0 0.00 0.00 0.00 52 1018.1
20260509004117 64 0 0.0 0.0 0.00 0.00 0.00 55 1018.4
20260509001117 62 0 0.0 0.0 0.00 0.00 0.00 55 1018.4
20260508234117 62 0 0.0 0.0 0.00 0.00 0.00 56 1018.5
20260508224117 60 0 0.0 0.0 0.00 0.00 0.00 57 1018.7
20260508221117 60 0 0.0 0.0 0.00 0.00 0.00 56 1018.6
20260508214117 60 0 0.0 0.0 0.00 0.00 0.00 57 1018.4
20260508211117 60 0 0.0 0.0 0.00 0.00 0.00 54 1018.1
20260508204117 62 0 0.0 0.0 0.00 0.00 0.00 51 1017.8
20260508201117 62 0 0.0 0.0 0.00 0.00 0.00 53 1017.6
20260508194117 62 0 0.0 0.0 0.00 0.00 0.00 53 1017.1
20260508191118 62 0 0.0 0.0 0.00 0.00 0.00 53 1016.6
20260508184117 62 0 0.0 0.0 0.00 0.00 0.00 52 1016.3
20260508181117 64 0 0.0 0.0 0.00 0.00 0.00 52 1015.8
20260508174117 64 0 0.0 0.0 0.00 0.00 0.00 52 1015.6
20260508171117 64 0 0.0 0.0 0.00 0.00 0.00 52 1015.6
20260508164117 64 0 0.0 0.0 0.00 0.00 0.00 51 1015.4
20260508161117 64 0 0.0 0.0 0.00 0.00 0.00 51 1015.5
20260508154117 66 0 0.0 0.0 0.00 0.00 0.00 51 1015.4
20260508151117 66 0 0.0 0.0 0.00 0.00 0.00 51 1015.1
20260508144117 66 0 0.0 0.0 0.00 0.00 0.00 51 1014.7
20260508141117 66 0 0.0 0.0 0.00 0.00 0.00 51 1014.7
20260508134117 68 0 0.0 0.0 0.00 0.00 0.00 51 1014.6
20260508131117 68 0 0.0 0.0 0.00 0.00 0.00 51 1014.3
20260508124117 68 0 0.0 0.0 0.00 0.00 0.00 50 1013.9
20260508121117 69 0 0.0 0.0 0.00 0.00 0.00 51 1013.7
20260508114117 69 0 0.0 0.0 0.00 0.00 0.00 51 1013.2
20260508111117 69 0 0.0 0.0 0.00 0.00 0.00 51 1012.8
20260508104117 69 0 0.0 0.0 0.00 0.00 0.00 51 1012.2
20260508101117 71 0 0.0 0.0 0.00 0.00 0.00 51 1011.4
20260508094117 71 0 0.0 0.0 0.00 0.00 0.00 51 1010.9